Location: Ford County Road and Bridge Department
(37.7686°N, 99.9762°W)
Time: 01:11:09
(UTC+00:00)

ASTRO E2 - Pass Details

Date: 18 January 2020
Orbit: 510 x 517 km, 31.4° (Epoch: 19 February)

Event Time Altitude Azimuth Distance (km) Brightness Sun altitude
Rises 00:12:46 0° 258° (WSW) 2,605 8.5 -5.6°
Reaches altitude 10° 00:15:10 10° 248° (WSW) 1,719 7.2 -6.0°
Maximum altitude 00:18:40 30° 186° (S) 919 4.3 -6.6°
Drops below altitude 10° 00:22:10 10° 123° (ESE) 1,716 5.0 -7.3°
Enters shadow 00:24:11 - 114° (ESE) 2,457 5.7 -7.7°
